User: anonymous   Login
Location: Unspecified
(40.7945°N, 111.1337°W)
Time: 14:19:31
(UTC-06:00)
Language:

Okean 3 - Orbit

View from above orbital plane
View from above orbital plane
View from above satellite
View from above satellite

Ground track
Ground track

The orbit data is extracted from the following two-line orbital elements,

1 21397U 91039A   19111.84067219  .00000188  00000-0  15569-4 0  9991
2 21397  82.5243 218.3474 0018963 140.3560 219.9050 14.92790983510276
Epoch (UTC): 21 April 2019 20:10:34
Eccentricity: 0.0018963
inclination: 82.5243°
perigee height: 576 km
apogee height: 602 km
right ascension of ascending node: 218.3474°
argument of perigee: 140.3560°
revolutions per day: 14.92790983
mean anomaly at epoch: 219.9050°
orbit number at epoch: 51027

The dashed part of the orbit path shows where the satellite is in the earth's shadow,  

DLR